Regional Weather Roundup
Issued by NWS

Home | Current Version | Previous Version | Graphics & Text | Print | Product List | Glossary On
Versions: 1 2 3 4 5 6 7 8 9 10 11 12 13 14 15 16 17 18 19 20 21 22 23 24 25 26 27 28 29 30 31 32 33 34 35 36 37 38 39 40 41 42 43 44 45 46 47 48 49 50
000
ASUS45 KSLC 280910
RWRUT

UTAH REGIONAL WEATHER ROUNDUP
NATIONAL WEATHER SERVICE SALT LAKE CITY UT
300 AM MDT THU MAY 28 2015

UTZ001>011-023>025-281000-

NORTHERN UTAH

CITY           SKY/WX    TMP DP  RH WIND       PRES   REMARKS
BRIGHAM CITY   PTCLDY    55  47  72 CALM      30.09F
HILL AFB       MOCLDY    51  46  80 E9        30.10F
LOGAN          CLEAR     49  44  83 W3        30.09F
OGDEN          PTCLDY    51  48  89 S5        30.09F
PROVO AIRPORT  CLEAR     54  45  71 SW7       30.12S
SALT LAKE CITY PTCLDY    53  50  89 SE5       30.10F
VERNAL         MOCLDY    48  45  89 W3        30.12S
WENDOVER       PTCLDY    52  46  82 CALM      30.07F
HEBER CITY     CLEAR     41  37  87 SE3       30.16S
WEST JORDAN    CLEAR     48  46  93 CALM      30.12F

$$

UTZ012>022-026-027-281000-

SOUTHERN/CENTRAL UTAH

CITY           SKY/WX    TMP DP  RH WIND       PRES   REMARKS
BLANDING       CLEAR     49  40  70 NE6       30.17S
BRYCE CANYON   CLEAR     40  37  89 W12       30.24S WCI  33
CEDAR CITY     MOCLDY    47  44  90 N6        30.12F
DELTA          CLEAR     47  43  85 NE5       30.12S
HANKSVILLE     MOCLDY    55  45  67 NW9       30.11S
MILFORD        PTCLDY    48  45  89 SW6       30.09F
MOAB/CYNLANDS  CLEAR     54  46  74 NW7       30.08F
PRICE          MOCLDY    48  44  86 CALM      30.13F
ST GEORGE      SUNNY     64  43  45 CALM      30.02S
KANAB          CLEAR     55  39  54 CALM      30.14R

$$

REGIONAL REPORTS     COLORADO/ARIZONA

CITY           SKY/WX    TMP DP  RH WIND       PRES   REMARKS
CRAIG, CO      CLOUDY    50  42  74 CALM      30.14F
GRAND JUNCTION PTCLDY    51  48  89 SE14      30.10F
RIFLE          MOCLDY    49  46  90 SE7       30.16F
MONTROSE       MOCLDY    50  46  86 SE9       30.19R
CORTEZ         CLEAR     44  39  82 SE7       30.12S
PAGE, AZ       CLEAR     65  40  39 W5        30.04S
GRAND CANYON   CLEAR     38  33  82 CALM      30.19F
KINGMAN        CLEAR     59  19  21 S7        30.01R
FLAGSTAFF      CLEAR     39  29  67 CALM      30.21S

$$

REGIONAL REPORTS    NEVADA/IDAHO/WYOMING

CITY           SKY/WX    TMP DP  RH WIND       PRES   REMARKS
LAS VEGAS, NV  CLEAR     78  31  17 S13       29.85R
ELY            PTCLDY    43  40  89 S6        30.16
ELKO           PTCLDY    53  44  71 NE6       30.09S
POCATELLO, ID  PTCLDY    47  47 100 NW5       30.09S
BURLEY         PTCLDY    51  43  74 SW9       30.05S
EVANSTON, WY   PTCLDY    39  37  92 S7        30.17F WCI  34
ROCK SPRINGS   CLOUDY    45  40  82 SW17      30.14F
KEMMERER       MOCLDY    41  37  87 N3        30.17F

$$


USA.gov is the U.S. government's official web portal to all federal, state and local government web resources and services.